Location: ??????????
(48.4699°N, 37.9573°E)
Time: 12:04:02
(UTC+00:00)

Cosmos 1892 Rocket - Pass Details

Date: 20 January 2021
Orbit: 607 x 632 km, 82.5° (Epoch: 26 February)

Event Time Altitude Azimuth Distance (km) Brightness Sun altitude
Rises 15:16:09 0° 175° (S) 2,863 7.1 -11.1°
Reaches altitude 10° 15:18:23 10° 171° (S) 1,961 6.2 -11.5°
Maximum altitude 15:22:37 53° 94° (E) 751 3.6 -12.1°
Drops below altitude 10° 15:26:51 10° 18° (NNE) 1,970 5.8 -12.8°
Sets 15:29:06 0° 14° (NNE) 2,878 6.7 -13.2°
